Meath Environmental Platform

Observations for Trim Patrick St

Time AQI Temp °C Hum % Pres Pa CO μg/m³ H₂S μg/m³ NO μg/m³ NO₂ μg/m³ O₃ μg/m³ SO₂ μg/m³ PM1 μg/m³ PM2.5 μg/m³ PM10 μg/m³
Sunday 9 August 2026
07:22 2 18 75 38,460 0.1 6.35 1.81 29.59 34.31 0.81 7.14 9.81 10.79
07:21 2 18 75 38,460 0.1 5.33 1.82 14.66 32.08 1.57 6.29 10.51 11.56
07:20 2 18 75 38,460 0.11 5.9 1.81 20.65 31.76 1.22 5.43 9.1 10.01
07:19 2 18 74 38,460 0.11 6.01 1.81 21.04 47.01 1.02 5.43 9.18 10.09
07:18 2 18 75 38,460 0.11 6.11 1.73 26.61 31.61 1.17 5.43 9.09 10
07:17 2 18 75 38,460 0.12 7.08 1.78 32.35 37.25 1.54 6.29 10.52 11.57
07:16 2 18 75 38,460 0.1 3.65 1.77 8.83 34.12 1.51 5.43 10.53 11.58
07:15 2 18 75 38,460 0.1 6.51 1.8 20.35 32.95 1.16 6.29 9.11 10.02
07:14 2 18 75 38,460 0.11 7.55 1.78 34.55 43.72 1.15 4.57 9.12 10.03
07:13 2 18 75 38,460 0.11 6.82 1.82 25.63 37.24 1.45 5.43 9.84 10.83
07:12 2 18 75 38,460 0.12 6.35 1.82 26.91 31.46 1.34 6.29 9.82 10.8
07:11 2 18 75 38,460 0.12 5.09 1.8 18.98 39.61 2.08 5.43 9.82 10.8
07:10 2 18 75 38,460 0.09 6.61 1.8 15.24 36.83 1.55 6.29 9.82 10.8
07:09 2 18 75 38,460 0.1 6.27 1.76 19.7 33.93 1.72 6.29 9.83 10.82
07:08 2 18 75 38,460 0.1 6.4 1.74 19.12 34.88 1.41 6.29 9.12 10.03
07:07 2 18 75 38,460 0.1 7.48 1.76 33.92 33.43 0.87 6.29 9.83 10.82
07:06 2 18 75 38,460 0.11 5.85 1.74 19.38 38.9 1.75 6.29 9.84 10.83
07:05 2 18 74 38,460 0.11 5.25 1.75 25.37 32.37 1.47 4.57 8.43 9.27
07:04 2 18 74 38,460 0.1 4.2 1.61 12.25 37.13 1.18 5.43 8.44 9.28
07:01 2 18 74 38,460 0.1 7.92 1.5 26.65 44 1.31 5.43 9.85 10.83